Time,TemperatureF,DewpointF,PressureIn,WindDirection,WindDirectionDegrees,WindSpeedMPH,WindSpeedGustMPH,Humidity,HourlyPrecipIn,Conditions,Clouds,dailyrainin,SoftwareType,DateUTC
2013-07-09 00:00:00,54.9,54.3,29.97,SW,235,5.0,9.0,98,0.00,CLR,,0.00,WeatherDisplay:10.37,2013-07-09 07:00:00,
2013-07-09 00:15:00,54.7,54.1,29.94,SW,219,3.0,9.0,98,0.00,CLR,,0.00,WeatherDisplay:10.37,2013-07-09 07:15:00,
2013-07-09 00:30:00,54.5,53.9,29.94,SW,214,3.0,9.0,98,0.00,CLR,,0.00,WeatherDisplay:10.37,2013-07-09 07:30:00,
2013-07-09 00:45:00,54.3,53.8,29.94,SW,224,5.0,7.0,98,0.00,CLR,,0.00,WeatherDisplay:10.37,2013-07-09 07:45:00,
2013-07-09 01:00:00,54.3,53.8,29.94,WSW,243,5.0,7.0,98,0.00,CLR,,0.00,WeatherDisplay:10.37,2013-07-09 08:00:00,
2013-07-09 01:15:00,54.1,53.6,29.94,SW,222,5.0,7.0,98,0.00,CLR,,0.00,WeatherDisplay:10.37,2013-07-09 08:15:00,
2013-07-09 01:30:00,54.0,53.4,29.97,WSW,244,8.0,10.0,98,0.00,CLR,,0.00,WeatherDisplay:10.37,2013-07-09 08:30:00,
2013-07-09 01:45:00,54.0,53.4,29.97,WSW,245,6.0,7.0,98,0.00,CLR,,0.00,WeatherDisplay:10.37,2013-07-09 08:45:00,
2013-07-09 02:00:00,54.0,53.4,29.97,SW,215,3.0,9.0,98,0.00,CLR,,0.00,WeatherDisplay:10.37,2013-07-09 09:00:00,
2013-07-09 02:15:00,54.0,53.4,29.97,WSW,242,5.0,7.0,98,0.00,CLR,,0.00,WeatherDisplay:10.37,2013-07-09 09:15:00,
2013-07-09 02:30:00,54.0,53.4,29.94,WSW,241,5.0,7.0,98,0.00,CLR,,0.00,WeatherDisplay:10.37,2013-07-09 09:30:00,
2013-07-09 02:45:00,54.0,53.4,29.94,WSW,248,5.0,7.0,98,0.00,CLR,,0.00,WeatherDisplay:10.37,2013-07-09 09:45:00,
2013-07-09 03:00:00,54.0,53.4,29.94,WSW,242,5.0,8.0,98,0.00,CLR,,0.00,WeatherDisplay:10.37,2013-07-09 10:00:00,
2013-07-09 03:15:00,54.0,53.4,29.97,SSW,208,5.0,8.0,98,0.00,CLR,,0.00,WeatherDisplay:10.37,2013-07-09 10:15:00,
2013-07-09 03:30:00,53.8,53.2,29.94,SW,225,6.0,8.0,98,0.00,CLR,,0.00,WeatherDisplay:10.37,2013-07-09 10:30:00,
2013-07-09 03:45:00,53.8,53.2,29.97,WSW,242,7.0,9.0,98,0.00,CLR,,0.00,WeatherDisplay:10.37,2013-07-09 10:45:00,
2013-07-09 04:00:00,53.6,53.1,29.97,WSW,253,5.0,9.0,98,0.00,CLR,,0.00,WeatherDisplay:10.37,2013-07-09 11:00:00,
2013-07-09 04:15:00,53.6,53.0,29.97,WSW,253,7.0,9.0,98,0.00,CLR,,0.00,WeatherDisplay:10.37,2013-07-09 11:15:00,
2013-07-09 04:30:00,53.4,52.9,29.97,WSW,249,5.0,9.0,98,0.00,CLR,,0.00,WeatherDisplay:10.37,2013-07-09 11:30:00,
2013-07-09 04:45:00,53.4,52.9,29.97,SW,216,5.0,8.0,98,0.00,CLR,,0.00,WeatherDisplay:10.37,2013-07-09 11:45:00,
2013-07-09 05:00:00,53.3,52.7,29.97,WSW,256,6.0,9.0,98,0.00,CLR,,0.00,WeatherDisplay:10.37,2013-07-09 12:00:00,
2013-07-09 05:15:00,53.2,52.7,29.97,WSW,237,6.0,7.0,98,0.00,CLR,,0.00,WeatherDisplay:10.37,2013-07-09 12:15:00,
2013-07-09 05:30:00,53.2,52.7,29.97,WSW,241,3.0,7.0,98,0.00,CLR,,0.00,WeatherDisplay:10.37,2013-07-09 12:30:00,
2013-07-09 05:45:00,53.4,52.9,29.97,SW,230,5.0,7.0,98,0.00,CLR,,0.00,WeatherDisplay:10.37,2013-07-09 12:45:00,
2013-07-09 06:00:00,52.9,52.3,29.97,WNW,294,5.0,8.0,98,0.00,CLR,,0.00,WeatherDisplay:10.37,2013-07-09 13:00:00,
2013-07-09 06:15:00,53.1,52.5,29.97,SW,222,3.0,5.0,98,0.00,CLR,,0.00,WeatherDisplay:10.37,2013-07-09 13:15:00,
2013-07-09 06:30:00,53.4,52.9,29.97,SSW,193,1.0,3.0,98,0.00,CLR,,0.00,WeatherDisplay:10.37,2013-07-09 13:30:00,
2013-07-09 06:45:00,54.1,53.6,29.97,SW,225,1.0,3.0,98,0.00,CLR,,0.00,WeatherDisplay:10.37,2013-07-09 13:45:00,
2013-07-09 07:00:00,54.3,53.8,29.97,SSW,195,1.0,5.0,98,0.00,CLR,,0.00,WeatherDisplay:10.37,2013-07-09 14:00:00,
2013-07-09 07:15:00,54.0,53.4,29.99,NW,306,3.0,5.0,98,0.00,CLR,,0.00,WeatherDisplay:10.37,2013-07-09 14:15:00,
2013-07-09 07:30:00,54.0,53.4,30.00,NNW,333,3.0,6.0,98,0.00,CLR,,0.00,WeatherDisplay:10.37,2013-07-09 14:30:00,
2013-07-09 07:45:00,55.2,54.7,30.00,SSW,206,1.0,3.0,98,0.00,CLR,,0.00,WeatherDisplay:10.37,2013-07-09 14:45:00,
2013-07-09 08:00:00,55.9,55.4,30.00,North,352,1.0,3.0,98,0.00,CLR,,0.00,WeatherDisplay:10.37,2013-07-09 15:00:00,
2013-07-09 08:15:00,56.5,55.9,30.00,WNW,289,1.0,3.0,98,0.00,CLR,,0.00,WeatherDisplay:10.37,2013-07-09 15:15:00,
2013-07-09 08:30:00,56.0,55.5,30.00,WNW,294,3.0,5.0,98,0.00,CLR,,0.00,WeatherDisplay:10.37,2013-07-09 15:30:00,
2013-07-09 08:45:00,56.8,56.3,30.00,WNW,302,2.0,5.0,98,0.00,CLR,,0.00,WeatherDisplay:10.37,2013-07-09 15:45:00,
2013-07-09 09:00:00,57.5,56.7,30.00,NW,310,3.0,6.0,97,0.00,CLR,,0.00,WeatherDisplay:10.37,2013-07-09 16:00:00,
2013-07-09 09:15:00,58.3,57.2,30.00,WNW,303,2.0,6.0,96,0.00,CLR,,0.00,WeatherDisplay:10.37,2013-07-09 16:15:00,
2013-07-09 09:30:00,58.8,57.1,30.00,WNW,289,5.0,6.0,94,0.00,CLR,,0.00,WeatherDisplay:10.37,2013-07-09 16:30:00,
2013-07-09 09:45:00,58.6,56.3,30.00,NW,308,6.0,7.0,92,0.00,CLR,,0.00,WeatherDisplay:10.37,2013-07-09 16:45:00,
2013-07-09 10:00:00,59.2,56.6,30.00,NW,306,6.0,8.0,91,0.00,CLR,,0.00,WeatherDisplay:10.37,2013-07-09 17:00:00,
2013-07-09 10:15:00,60.1,57.1,30.00,WNW,295,6.0,7.0,90,0.00,CLR,,0.00,WeatherDisplay:10.37,2013-07-09 17:15:00,
2013-07-09 10:30:00,60.9,57.3,30.00,WNW,296,6.0,8.0,88,0.00,CLR,,0.00,WeatherDisplay:10.37,2013-07-09 17:30:00,
2013-07-09 10:45:00,61.2,56.6,30.00,WNW,298,6.0,8.0,85,0.00,CLR,,0.00,WeatherDisplay:10.37,2013-07-09 17:45:00,
2013-07-09 11:00:00,61.5,56.3,30.00,WNW,291,8.0,9.0,83,0.00,CLR,,0.00,WeatherDisplay:10.37,2013-07-09 18:00:00,
2013-07-09 11:15:00,61.3,56.1,30.00,WNW,292,10.0,12.0,83,0.00,CLR,,0.00,WeatherDisplay:10.37,2013-07-09 18:15:00,
2013-07-09 11:30:00,61.6,56.1,30.00,WNW,293,9.0,12.0,82,0.00,CLR,,0.00,WeatherDisplay:10.37,2013-07-09 18:30:00,
2013-07-09 11:45:00,62.3,56.3,30.00,West,280,6.0,10.0,81,0.00,CLR,,0.00,WeatherDisplay:10.37,2013-07-09 18:45:00,
2013-07-09 12:00:00,63.0,55.6,30.00,West,275,6.0,9.0,77,0.00,CLR,,0.00,WeatherDisplay:10.37,2013-07-09 19:00:00,
2013-07-09 12:15:00,62.2,54.1,30.00,WNW,283,8.0,10.0,75,0.00,CLR,,0.00,WeatherDisplay:10.37,2013-07-09 19:15:00,
2013-07-09 12:30:00,65.1,55.5,30.03,West,262,6.0,10.0,71,0.00,CLR,,0.00,WeatherDisplay:10.37,2013-07-09 19:30:00,
2013-07-09 12:45:00,65.8,55.4,30.00,WSW,251,7.0,10.0,69,0.00,CLR,,0.00,WeatherDisplay:10.37,2013-07-09 19:45:00,
2013-07-09 13:00:00,65.9,55.9,30.00,West,272,5.0,10.0,70,0.00,CLR,,0.00,WeatherDisplay:10.37,2013-07-09 20:00:00,
2013-07-09 13:15:00,64.4,55.2,30.00,West,280,5.0,12.0,72,0.00,CLR,,0.00,WeatherDisplay:10.37,2013-07-09 20:15:00,
2013-07-09 13:30:00,63.1,54.3,30.00,WNW,285,9.0,12.0,73,0.00,CLR,,0.00,WeatherDisplay:10.37,2013-07-09 20:30:00,
2013-07-09 13:45:00,63.7,54.5,30.00,West,275,8.0,12.0,72,0.00,CLR,,0.00,WeatherDisplay:10.37,2013-07-09 20:45:00,
2013-07-09 14:00:00,65.9,55.4,30.00,WSW,249,7.0,10.0,69,0.00,CLR,,0.00,WeatherDisplay:10.37,2013-07-09 21:00:00,
2013-07-09 14:15:00,66.6,54.9,30.00,WSW,256,6.0,9.0,66,0.00,CLR,,0.00,WeatherDisplay:10.37,2013-07-09 21:15:00,
2013-07-09 14:30:00,67.2,55.0,30.00,WSW,254,7.0,10.0,65,0.00,CLR,,0.00,WeatherDisplay:10.37,2013-07-09 21:30:00,
2013-07-09 14:45:00,65.8,54.2,30.00,West,271,7.0,9.0,66,0.00,CLR,,0.00,WeatherDisplay:10.37,2013-07-09 21:45:00,
2013-07-09 15:00:00,65.2,53.9,30.00,West,271,8.0,11.0,67,0.00,CLR,,0.00,WeatherDisplay:10.37,2013-07-09 22:00:00,
2013-07-09 15:15:00,66.8,55.5,30.00,West,261,6.0,12.0,67,0.00,CLR,,0.00,WeatherDisplay:10.37,2013-07-09 22:15:00,
2013-07-09 15:30:00,67.2,55.4,30.00,West,268,6.0,10.0,66,0.00,CLR,,0.00,WeatherDisplay:10.37,2013-07-09 22:30:00,
2013-07-09 15:45:00,67.0,55.3,30.00,WSW,257,7.0,10.0,66,0.00,CLR,,0.00,WeatherDisplay:10.37,2013-07-09 22:45:00,
2013-07-09 16:00:00,67.3,54.7,29.97,West,268,7.0,11.0,64,0.00,CLR,,0.00,WeatherDisplay:10.37,2013-07-09 23:00:00,
2013-07-09 16:15:00,66.8,54.6,29.97,West,267,8.0,11.0,65,0.00,CLR,,0.00,WeatherDisplay:10.37,2013-07-09 23:15:00,
2013-07-09 16:30:00,67.4,55.7,29.97,West,272,6.0,10.0,66,0.00,CLR,,0.00,WeatherDisplay:10.37,2013-07-09 23:30:00,
2013-07-09 16:45:00,66.8,55.4,29.97,West,261,6.0,10.0,67,0.00,CLR,,0.00,WeatherDisplay:10.37,2013-07-09 23:45:00,
2013-07-09 17:00:00,66.0,55.6,29.97,WSW,248,7.0,10.0,69,0.00,CLR,,0.00,WeatherDisplay:10.37,2013-07-10 00:00:00,
2013-07-09 17:15:00,65.1,55.4,29.97,West,268,7.0,12.0,71,0.00,CLR,,0.00,WeatherDisplay:10.37,2013-07-10 00:15:00,
2013-07-09 17:30:00,63.7,55.6,29.94,WSW,253,7.0,12.0,75,0.00,CLR,,0.00,WeatherDisplay:10.37,2013-07-10 00:30:00,
2013-07-09 17:45:00,61.9,55.6,29.94,West,271,8.0,13.0,80,0.00,CLR,,0.00,WeatherDisplay:10.37,2013-07-10 00:45:00,
2013-07-09 18:00:00,60.8,56.0,29.94,West,277,12.0,14.0,84,0.00,CLR,,0.00,WeatherDisplay:10.37,2013-07-10 01:00:00,
2013-07-09 18:15:00,60.1,55.9,29.94,West,273,10.0,14.0,86,0.00,CLR,,0.00,WeatherDisplay:10.37,2013-07-10 01:15:00,
2013-07-09 18:30:00,59.5,56.0,29.94,West,276,12.0,14.0,88,0.00,CLR,,0.00,WeatherDisplay:10.37,2013-07-10 01:30:00,
2013-07-09 18:45:00,58.8,55.9,29.94,West,268,8.0,14.0,90,0.00,CLR,,0.00,WeatherDisplay:10.37,2013-07-10 01:45:00,
2013-07-09 19:00:00,58.5,55.8,29.94,West,271,7.0,14.0,91,0.00,CLR,,0.00,WeatherDisplay:10.37,2013-07-10 02:00:00,
2013-07-09 19:15:00,57.7,55.7,29.94,West,277,7.0,14.0,93,0.00,CLR,,0.00,WeatherDisplay:10.37,2013-07-10 02:15:00,
2013-07-09 19:30:00,57.4,55.7,29.94,West,272,7.0,12.0,94,0.00,CLR,,0.00,WeatherDisplay:10.37,2013-07-10 02:30:00,
2013-07-09 19:45:00,56.6,55.5,29.94,WNW,283,7.0,13.0,96,0.00,CLR,,0.00,WeatherDisplay:10.37,2013-07-10 02:45:00,
2013-07-09 20:00:00,56.7,55.5,29.94,West,268,6.0,10.0,96,0.00,CLR,,0.00,WeatherDisplay:10.37,2013-07-10 03:00:00,
2013-07-09 20:15:00,56.5,55.6,29.94,WSW,255,6.0,10.0,97,0.00,CLR,,0.00,WeatherDisplay:10.37,2013-07-10 03:15:00,
2013-07-09 20:30:00,56.1,55.3,29.94,West,267,7.0,10.0,97,0.00,CLR,,0.00,WeatherDisplay:10.37,2013-07-10 03:30:00,
2013-07-09 20:45:00,55.9,55.1,29.94,West,272,7.0,10.0,97,0.00,CLR,,0.00,WeatherDisplay:10.37,2013-07-10 03:45:00,
2013-07-09 21:00:00,55.8,55.2,29.94,West,259,6.0,10.0,98,0.00,CLR,,0.00,WeatherDisplay:10.37,2013-07-10 04:00:00,
2013-07-09 21:14:00,55.7,55.1,29.94,WSW,255,8.0,12.0,98,0.00,CLR,,0.00,WeatherDisplay:10.37,2013-07-10 04:14:00,
2013-07-09 21:30:00,55.8,55.2,29.94,WSW,249,10.0,12.0,98,0.00,CLR,,0.00,WeatherDisplay:10.37,2013-07-10 04:30:00,
2013-07-09 21:45:00,55.6,55.0,29.97,West,262,8.0,13.0,98,0.00,CLR,,0.00,WeatherDisplay:10.37,2013-07-10 04:45:00,
2013-07-09 21:59:00,55.4,54.8,29.97,WSW,248,7.0,12.0,98,0.00,CLR,,0.00,WeatherDisplay:10.37,2013-07-10 04:59:00,
2013-07-09 22:15:00,55.4,54.8,29.97,WSW,251,7.0,10.0,98,0.00,CLR,,0.00,WeatherDisplay:10.37,2013-07-10 05:15:00,
2013-07-09 22:29:00,55.0,54.5,29.97,West,278,8.0,13.0,98,0.00,CLR,,0.00,WeatherDisplay:10.37,2013-07-10 05:29:00,
2013-07-09 22:44:00,55.0,54.5,29.97,WSW,242,9.0,13.0,98,0.00,CLR,,0.00,WeatherDisplay:10.37,2013-07-10 05:44:00,
2013-07-09 22:59:00,54.9,54.3,29.97,WSW,252,9.0,14.0,98,0.00,CLR,,0.00,WeatherDisplay:10.37,2013-07-10 05:59:00,
2013-07-09 23:14:00,54.7,54.1,29.97,West,264,9.0,14.0,98,0.00,CLR,,0.00,WeatherDisplay:10.37,2013-07-10 06:14:00,
2013-07-09 23:29:00,54.7,54.1,29.97,West,265,9.0,14.0,98,0.00,CLR,,0.00,WeatherDisplay:10.37,2013-07-10 06:29:00,
2013-07-09 23:44:00,54.5,53.9,29.97,WNW,289,13.0,16.0,98,0.00,CLR,,0.00,WeatherDisplay:10.37,2013-07-10 06:44:00,
2013-07-09 23:59:00,54.7,54.1,29.97,West,280,9.0,15.0,98,0.00,CLR,,0.00,WeatherDisplay:10.37,2013-07-10 06:59:00,